Weather History for Aberdeen, SD

Change the Weather History Date:

Wednesday, September 11, 2013

  Actual Average Record
Temperature  
Mean Temperature 69 °F 61 °F  
Max Temperature 87 °F 74 °F 100 °F (1927)
Min Temperature 51 °F 48 °F 28 °F (1940)
Degree Days  
Heating Degree Days 0 6  
Month to date heating degree days 6 48  
Since 1 July heating degree days 57 99  
Cooling Degree Days 4 2  
Month to date cooling degree days 64 26  
Year to date cooling degree days 553 509  
Growing Degree Days 20 (Base 50)    
Moisture  
Dew Point 52 °F    
Average Humidity 60    
Maximum Humidity 93    
Minimum Humidity 27    
Precipitation  
Precipitation 0.00 in 0.08 in 0.80 in (1901)
Month to date precipitation 0.41 0.83  
Year to date precipitation 14.17 17.12  
Sea Level Pressure  
Sea Level Pressure 30.09 in    
Wind  
Wind Speed 6 mph (NW)    
Max Wind Speed 20 mph    
Max Gust Speed 25 mph    
Visibility 10 miles    
Events      
T = Trace of Precipitation, MM = Missing Value Source: NWS Daily Summary

Daily Weather History Graph

Daily Weather History Graph

Search for Another Location

Airport:

Trip Planner

Search our weather history database for the weather conditions in past years. The results will help you decide how hot, cold, wet, or windy it might be!

Date:

Astronomy

Sep. 11, 2013 Rise Set
Actual Time 7:07 AM CDT 7:51 PM CDT
Civil Twilight 6:37 AM CDT 8:21 PM CDT
Nautical Twilight 6:02 AM CDT 8:57 PM CDT
Astronomical Twilight 5:24 AM CDT 9:34 PM CDT
Moon 1:56 PM CDT (9/11) 11:30 PM CDT (9/11)
Length of Visible Light 13h 44m
Length of Day
12h 44m
Waxing Crescent, 39% of the Moon is Illuminated
Sep 11
Waxing Crescent
Sep 12
First Quarter
Sep 19
Full
Sep 26
Last Quarter
Oct 4
New

Hourly Weather History & Observations

Time (CDT) Temp. Dew Point Humidity Pressure Visibility Wind Dir Wind Speed Gust Speed Precip Events Conditions
12:53 AM 60.1 °F 55.9 °F 86% 30.01 in 10.0 mi WSW 4.6 mph - N/A   Clear
1:53 AM 57.9 °F 55.0 °F 90% 30.01 in 10.0 mi WSW 4.6 mph - N/A   Clear
2:53 AM 62.1 °F 55.9 °F 80% 30.02 in 10.0 mi West 8.1 mph - N/A   Clear
3:53 AM 61.0 °F 55.0 °F 81% 30.03 in 10.0 mi WNW 6.9 mph - N/A   Clear
4:53 AM 57.0 °F 55.0 °F 93% 30.04 in 10.0 mi West 3.5 mph - N/A   Clear
5:53 AM 55.0 °F 53.1 °F 93% 30.06 in 10.0 mi Calm Calm - N/A   Clear
6:53 AM 53.1 °F 52.0 °F 96% 30.08 in 10.0 mi SW 3.5 mph - N/A   Clear
7:53 AM 55.0 °F 53.1 °F 93% 30.09 in 10.0 mi Calm Calm - N/A   Clear
8:53 AM 62.1 °F 55.9 °F 80% 30.09 in 10.0 mi Calm Calm - N/A   Clear
9:53 AM 66.9 °F 59.0 °F 76% 30.10 in 10.0 mi South 4.6 mph - N/A   Clear
10:53 AM 73.0 °F 59.0 °F 61% 30.10 in 10.0 mi Calm Calm - N/A   Clear
11:53 AM 79.0 °F 55.9 °F 45% 30.09 in 10.0 mi Variable 4.6 mph - N/A   Clear
12:53 PM 84.0 °F 48.9 °F 29% 30.08 in 10.0 mi WNW 12.7 mph 18.4 mph N/A   Clear
1:53 PM 86.0 °F 48.0 °F 27% 30.08 in 10.0 mi WNW 12.7 mph 23.0 mph N/A   Clear
2:53 PM 84.9 °F 46.9 °F 27% 30.07 in 10.0 mi NW 17.3 mph 20.7 mph N/A   Scattered Clouds
3:53 PM 82.0 °F 48.9 °F 31% 30.08 in 10.0 mi NW 13.8 mph - N/A   Overcast
4:53 PM 79.0 °F 46.9 °F 32% 30.09 in 10.0 mi NNW 16.1 mph - N/A   Overcast
5:53 PM 79.0 °F 51.1 °F 38% 30.10 in 10.0 mi NNW 8.1 mph - N/A   Mostly Cloudy
6:53 PM 75.9 °F 48.9 °F 38% 30.11 in 10.0 mi NNE 5.8 mph - N/A   Clear
7:53 PM 68.0 °F 48.9 °F 50% 30.13 in 10.0 mi NNE 6.9 mph - N/A   Clear
8:53 PM 64.0 °F 48.9 °F 58% 30.16 in 10.0 mi NNE 4.6 mph - N/A   Clear
9:53 PM 61.0 °F 46.9 °F 60% 30.18 in 10.0 mi NNE 4.6 mph - N/A   Clear
10:53 PM 57.9 °F 48.9 °F 72% 30.19 in 10.0 mi NNE 5.8 mph - N/A   Clear
11:53 PM 55.0 °F 46.9 °F 74% 30.19 in 10.0 mi Calm Calm - N/A   Clear